COSMOS 2251 DEB, 33789

Orbit data source: Space-Track

COSMOS 2251 DEB, 33789 is space debris in LEO originally from a launch on Wed, 16 Jun 1993 UTC launched from the Plesetsk Missile And Space Complex (PKMTR). The debris from Iridium 33, an American commercial communications satellite, has been tracked extensively since its accidental collision with the defunct Russian satellite Cosmos 2251 in 2009. This event, occurring at high speed in low Earth orbit (LEO), generated thousands of pieces of space debris, significantly increasing the risk of further collisions. The Iridium 33 debris cloud has impacted space traffic management and orbital debris mitigation strategies, making it a subject of ongoing study in space situational awareness.

Loading next visibility...
Identifier
33789, 1993-036AE
Orbit
LEO
Country
Flag of CISCIS
Related business
Manufacturer
Unknown
Mission
Spacecraft
Bus & Motor
Unknown
Mass
Unknown
Launch date (UTC)
1993-06-16 (33 years ago)
Launch vehicle
Unknown
Launch site
Plesetsk Missile And Space Complex (PKMTR)
Object type
Payload
Rocket body
Debris
Shape & HBR
Unknown shape, 0.2 m
Radar Cross Section
Medium (>0.1 m² and <1 m²)

Expand to show TLE details & history
Last TLE update: 5 hours ago

TLE from 5 hours ago
0 COSMOS 2251 DEB
1 33789U 93036AE  26071.33520059  .00000841  00000-0  56733-3 0  9994
2 33789  74.0630 295.3353 0239176  29.7132  82.5720 13.88957065863399
Epoch: 2026-03-12T08:02Z
TLE epoch observation values (Epoch: 2026-03-12T08:02:41.330Z)
Latitude
60.72247°
Longitude
154.23514°
Altitude
923.81 km
Speed
7.405 km/s
True Right ascension
05h 39m 34s
True Declination
60° 34' 44"
Sunlit
Object was in daylight at epoch
Visualization orbit readout
Latitude
Unknown
Longitude
Unknown
Altitude
Unknown
Speed
Unknown
Apparent Right ascension
Unknown
Apparent Declination
Unknown
Sunlit
N/A
Visualization observer readout
Local Sidereal Time
17:48:25
Azimuth
Unknown
Elevation
Unknown
Doppler factor
Unknown
Orbital elements
Apogee altitude
1,104.752 km
Perigee altitude
755.168 km
Semi-major axis
7,308.097 km
Eccentricity
0.02392
Inclination
74.063°
RAAN
295.3353°
Arg. of periapsis
29.7132°
True anomaly
85.29927°
Mean anomaly
82.572°
Eccentric anomaly
83.93471°
Mean motion
3.47406 °/min
Orbital period
103.63 mins
BSTAR
0.00056733
Loading maneuver chart data...
Computing Atmospheric mass density...

Documentation

Showing up to 5 results
|